FUNCUBE-1 (AO-73) (39444 NORAD) Tracking and Keplerian Element Data

This shows tracking and keplerian element data for the satellite.

Feedback or suggestion? Click here.




ElementValue
Catalog39444
NameFUNCUBE-1 (AO-73)
Epoch Orbit29582
Epoch Day145.93818952
Epoch Year2019
RAAN162.696
Inclination97.5616
Eccentricity0.0059707
Argument of Perigee105.48
Mean Anonmoly255.3018
Mean Motion14.81920314
Decay Rate1.72E-06
L11 39444U 13066AE 19145.93818952 .00000172 00000-0 27356-4 0 9992
L22 39444 97.5616 162.6960 0059707 105.4800 255.3018 14.81920314295829

Live tracking and technical data element details for FUNCUBE-1 (AO-73) (NORAD 39444). FUNCUBE-1 (AO-73) can be tracked NOW for your location showing map with azimuth and elevation plus other details from your city location.

Track the satellite on the map from your city or location and see movement details for azimuth, elevation, latitude, longitude, range, height, and movement on the map or in text.







IsCatalogInMostPopularTable: catalog: 39444, numindb: 191
Update: records affected: 1



GetName: 39444 FUNCUBE-1 (AO-73)

Hit Count: updated at: Sun, 26 May 2019 19:01:19 GMT